Location: Saint Benedict
(43.0380°N, 94.0644°W)
Time: 07:06:32
(UTC+00:00)

Daily predictions for brighter satellites

Satellite Brightness Start Highest point End
(mag) Time Altitude Azimuth Time Altitude Azimuth Time Altitude Azimuth
CZ-4B R/B 3.2 12:00:42 10° SW 12:02:42 15° W 12:04:42 10° WNW
Abrixas rocket 1.8 12:01:14 12° WNW 12:03:46 75° SSW 12:06:36 10° ESE
Cosmos 1484 Rocket 4.2 12:01:18 10° NNW 12:03:54 18° WNW 12:06:28 10° WSW
Envisat 3.8 12:02:26 10° NNE 12:07:28 58° E 12:12:28 10° S
H-2A R/B 2.7 12:05:32 10° N 12:09:21 83° WNW 12:13:12 10° SSW
Cosmos 407 Rocket 3.5 12:04:56 10° SSW 12:10:03 87° WNW 12:15:15 10° NNE
Cosmos 1553 Rocket 3.9 12:05:57 10° NNW 12:12:03 71° W 12:18:05 10° S
Cosmos 1626 Rocket 3.6 12:09:22 10° SSW 12:13:48 75° W 12:18:17 10° N
Cosmos 1140 Rocket 3.6 12:09:36 10° SSW 12:14:44 84° ESE 12:19:53 10° NNE
Cosmos 2278 4.4 12:10:34 10° NW 12:15:36 34° WSW 12:20:37 10° SSW
Cosmos 1602 Rocket 3.7 12:12:06 10° S 12:16:30 87° E 12:21:00 10° N
Okean O Rocket 3.1 12:12:49 10° NNE 12:16:59 42° E 12:21:07 10° S
Cosmos 2322 Rocket 2.9 12:12:45 10° NNW 12:18:23 58° ENE 12:23:55 10° SE
Meteor PRIRODA 4.5 12:17:08 10° N 12:20:20 29° WNW 12:23:31 10° SW
Cosmos 1606 Rocket 3.7 23:35:30 10° S 23:39:45 55° E 23:44:04 10° NNE
Timation 2 Rocket 4.3 23:34:28 10° NNW 23:40:58 54° ENE 23:47:38 10° SE
Cosmos 2219 3.8 23:38:19 10° N 23:43:37 36° ENE 23:48:53 10° ESE
Cosmos 1908 4.3 23:41:40 10° SSW 23:45:23 48° W 23:49:09 10° N
Cosmos 1400 Rocket 3.7 23:41:51 10° SSE 23:45:26 29° E 23:49:01 10° NNE
Okean-O 3.9 23:45:01 10° ESE 23:48:19 21° ENE 23:51:38 10° NNE
SKYMED 2 4.3 23:46:07 10° NNE 23:50:02 32° E 23:53:55 10° SSE
AQUARIUS 4.2 23:46:38 10° SSE 23:51:07 88° WSW 23:55:39 10° NNW
Meteor 2-14 Rocket 4.4 23:45:28 10° N 23:51:39 81° E 23:57:45 10° S
Cosmos 1892 4.1 23:48:53 10° NNE 23:51:41 19° ENE 23:54:27 10° ESE
CZ-4 R/B 2.7 23:49:50 10° ESE 23:52:30 18° ENE 23:55:10 10° NNE
ADEOS Rocket 3.9 23:46:15 10° N 23:52:37 62° WNW 23:59:39 10° SSW
Cosmos 1408 4.5 23:51:33 10° NE 23:53:04 12° ENE 23:54:35 10° E
ATLAS 5 CENTAUR R/B 4.3 23:52:23 10° NW 23:53:22 11° NNW 23:54:23 10° N
Cosmos 2058 4.4 23:52:36 10° NNE 23:55:10 16° ENE 23:57:43 10° ESE
